FW7254 Weather Reports


Display with metric or nautical units.
time (UTC)temp
F
wind
direction
speed
MPH
gust
MPH
rain 1hr
in
rain 24hr
in
rain mn
in
humidity
%
barometer
mb
20260510074830 72 134 1.0 0.0 0.00 0.00 0.00 56 1018.5
20260510073316 73 214 2.0 0.0 0.00 0.00 0.00 55 1018.3
20260510071823 73 171 1.0 0.0 0.00 0.00 0.00 53 1018.1
20260510070322 73 117 1.0 0.0 0.00 0.00 0.00 50 1018.0
20260510064828 74 110 1.0 0.0 0.00 0.00 0.00 50 1018.0
20260510063333 75 171 1.0 0.0 0.00 0.00 0.00 48 1017.8
20260510061832 75 101 1.0 0.0 0.00 0.00 0.00 47 1017.8
20260510060314 74 150 2.0 0.0 0.00 0.00 0.00 46 1017.9
20260510054823 75 121 2.0 0.0 0.00 0.00 0.00 42 1018.0
20260510053314 75 233 1.0 0.0 0.00 0.00 0.00 40 1018.0
20260510051815 75 110 2.0 0.0 0.00 0.00 0.00 39 1018.1
20260510050327 75 107 2.0 0.0 0.00 0.00 0.00 39 1018.2
20260510044823 75 111 3.0 0.0 0.00 0.00 0.00 40 1018.3
20260510043349 76 122 1.0 0.0 0.00 0.00 0.00 37 1018.4
20260510041817 75 125 1.0 0.0 0.00 0.00 0.00 38 1018.6
20260510040321 74 134 1.0 0.0 0.00 0.00 0.00 38 1018.8
20260510034831 74 121 2.0 0.0 0.00 0.00 0.00 39 1018.8
20260510033357 74 107 0.0 0.0 0.00 0.00 0.00 38 1019.0
20260510031817 73 109 3.0 0.0 0.00 0.00 0.00 38 1019.2
20260510030323 74 107 2.0 0.0 0.00 0.00 0.00 32 1019.3
20260510024828 74 109 1.0 0.0 0.00 0.00 0.00 30 1019.4
20260510023314 73 107 0.0 0.0 0.00 0.00 0.00 33 1019.5
20260510021815 73 109 1.0 0.0 0.00 0.00 0.00 34 1019.7
20260510020325 72 23 0.0 0.0 0.00 0.00 0.00 35 1020.0
20260510014812 72 5 0.0 0.0 0.00 0.00 0.00 35 1020.2
20260510013318 72 5 0.0 0.0 0.00 0.00 0.00 32 1020.2
20260510011824 70 360 0.0 0.0 0.00 0.00 0.00 34 1020.5
20260510010330 70 5 0.0 0.0 0.00 0.00 0.00 32 1020.5
20260510004818 70 5 0.0 0.0 0.00 0.00 0.00 31 1020.7
20260510003313 69 5 0.0 0.0 0.00 0.00 0.00 35 1020.7
20260510001850 68 5 0.0 0.0 0.00 0.00 0.00 35 1020.6
20260510000356 67 360 0.0 0.0 0.00 0.00 0.00 37 1020.6
20260509234814 66 360 1.0 0.0 0.00 0.00 0.00 36 1020.4
20260509233319 65 360 1.0 0.0 0.00 0.00 0.00 38 1020.4
20260509231848 64 11 0.0 0.0 0.00 0.00 0.00 40 1020.5
20260509230315 63 13 0.0 0.0 0.00 0.00 0.00 40 1020.5
20260509224820 63 13 0.0 0.0 0.00 0.00 0.00 41 1020.3
20260509223346 62 13 0.0 0.0 0.00 0.00 0.00 44 1020.2
20260509221833 62 17 0.0 0.0 0.00 0.00 0.00 50 1020.3
20260509220314 61 17 0.0 0.0 0.00 0.00 0.00 52 1020.2
20260509214824 60 17 0.0 0.0 0.00 0.00 0.00 54 1020.1
20260509213330 59 17 0.0 0.0 0.00 0.00 0.00 59 1019.8
20260509211839 58 17 0.0 0.0 0.00 0.00 0.00 61 1019.7
20260509210338 57 17 0.0 0.0 0.00 0.00 0.00 63 1019.4
20260509204825 56 17 0.0 0.0 0.00 0.00 0.00 65 1019.4
20260509203330 56 17 0.0 0.0 0.00 0.00 0.00 63 1019.2
20260509201838 56 17 0.0 0.0 0.00 0.00 0.00 63 1019.0
20260509200318 56 17 0.0 0.0 0.00 0.00 0.00 63 1018.8
20260509194826 56 17 0.0 0.0 0.00 0.00 0.00 62 1018.6
20260509193337 56 17 0.0 0.0 0.00 0.00 0.00 62 1018.4
20260509191839 56 17 0.0 0.0 0.00 0.00 0.00 63 1018.3
20260509190322 56 17 0.0 0.0 0.00 0.00 0.00 63 1018.1
20260509184815 56 17 0.0 0.0 0.00 0.00 0.00 63 1018.0
20260509183341 56 17 0.0 0.0 0.00 0.00 0.00 62 1017.8
20260509181829 57 17 0.0 0.0 0.00 0.00 0.00 59 1017.6
20260509180329 57 17 0.0 0.0 0.00 0.00 0.00 55 1017.4
20260509174815 58 17 0.0 0.0 0.00 0.00 0.00 53 1017.2
20260509173319 58 17 0.0 0.0 0.00 0.00 0.00 51 1017.1
20260509171827 58 17 0.0 0.0 0.00 0.00 0.00 49 1017.1
20260509170334 59 17 0.0 0.0 0.00 0.00 0.00 49 1017.0
20260509164842 59 17 0.0 0.0 0.00 0.00 0.00 48 1017.0
20260509163346 60 17 0.0 0.0 0.00 0.00 0.00 47 1016.9
20260509161832 60 17 0.0 0.0 0.00 0.00 0.00 46 1017.0
20260509160311 60 17 0.0 0.0 0.00 0.00 0.00 45 1016.9
20260509154819 61 17 0.0 0.0 0.00 0.00 0.00 44 1016.7
20260509153325 61 17 0.0 0.0 0.00 0.00 0.00 44 1016.6
20260509151813 61 17 0.0 0.0 0.00 0.00 0.00 43 1016.7
20260509150318 62 17 0.0 0.0 0.00 0.00 0.00 42 1016.8
20260509144846 62 17 0.0 0.0 0.00 0.00 0.00 41 1016.7
20260509143334 62 17 0.0 0.0 0.00 0.00 0.00 40 1016.5
20260509141821 62 17 0.0 0.0 0.00 0.00 0.00 39 1016.4
20260509140327 63 17 0.0 0.0 0.00 0.00 0.00 38 1016.2
20260509134835 63 17 0.0 0.0 0.00 0.00 0.00 37 1016.0
20260509133315 63 17 0.0 0.0 0.00 0.00 0.00 38 1016.0
20260509131843 63 17 0.0 0.0 0.00 0.00 0.00 37 1015.9
20260509130325 64 17 0.0 0.0 0.00 0.00 0.00 35 1015.8
20260509124812 64 17 0.0 0.0 0.00 0.00 0.00 34 1015.8
20260509123317 64 17 0.0 0.0 0.00 0.00 0.00 34 1015.6
20260509121824 64 17 0.0 0.0 0.00 0.00 0.00 36 1015.6
20260509120328 64 17 0.0 0.0 0.00 0.00 0.00 39 1015.7
20260509114836 64 17 0.0 0.0 0.00 0.00 0.00 46 1015.6
20260509113320 65 17 0.0 0.0 0.00 0.00 0.00 50 1015.5
20260509111827 65 17 0.0 0.0 0.00 0.00 0.00 56 1015.1
20260509110326 65 17 0.0 0.0 0.00 0.00 0.00 56 1015.1
20260509104813 66 17 0.0 0.0 0.00 0.00 0.00 55 1014.9
20260509103336 66 17 0.0 0.0 0.00 0.00 0.00 53 1014.7
20260509101827 66 17 0.0 0.0 0.00 0.00 0.00 53 1014.3
20260509100332 67 17 0.0 0.0 0.00 0.00 0.00 53 1013.9
20260509094814 68 17 0.0 0.0 0.00 0.00 0.00 52 1013.8
20260509093319 68 17 0.0 0.0 0.00 0.00 0.00 51 1013.5
20260509091827 69 15 0.0 0.0 0.00 0.00 0.00 50 1013.3
20260509090315 71 15 0.0 0.0 0.00 0.00 0.00 47 1013.2
20260509084814 72 15 0.0 0.0 0.00 0.00 0.00 28 1012.9
20260509083320 73 15 0.0 0.0 0.00 0.00 0.00 29 1012.3
20260509081830 73 16 0.0 0.0 0.00 0.00 0.00 29 1012.1
20260509080314 73 15 1.0 0.0 0.00 0.00 0.00 29 1011.9